Tracking 28908 objects as of 21-May-2024
HD Live streaming from Space Station
objects crossing your sky now

ION SCV-003

Track ION SCV-003 now!
10-day predictions
ION SCV-003 is classified as:


NORAD ID: 48912
Int'l Code: 2021-059AK
Perigee: 437.5 km
Apogee: 447.2 km
Inclination: 97.6 °
Period: 93.3 minutes
Semi major axis: 6813 km
RCS: Unknown
Launch date: June 30, 2021
Source: Italy (IT)
Launch site: AIR FORCE EASTERN TEST RANGE (AFETR)

Uplink (MHz):
Downlink (MHz): 437.515
Beacon (MHz):
Mode: 1200bps FSK
Call sign:
Status: Inactive


Uplink (MHz):
Downlink (MHz): 400.360
Beacon (MHz):
Mode: 9600bps GFSK
Call sign:
Status: Inactive

Your satellite tracking list
Your tracking list is empty




NASA's NSSDC Master Catalog

Two Line Element Set (TLE):
1 48912U 21059AK  24141.37480279  .00050388  00000-0  11120-2 0  9994
2 48912  97.6124 289.5119 0007128 166.0663 194.0782 15.43702464161113
Source of the keplerian elements: AFSPC